When you browse on this site, cookies collect data to enhance your experience and personalize the content and advertising you see.
Visit our Privacy Policy to learn more. By continuing to use the site, you agree to this use of cookies and data.
  • In Hungary
  • List of Countries
  • For 7 days
  • Water Temperature
  • Weather Map
  • News
  • Weather Widgets
  • user-avatar
    Login

    Hourly Weather Oruro

    Today, 2 June, Tuesday

    Time Temperature Precipitation Wind Pressure Humidity
    00:00 +1°C° 0 mm 3 mps 474 mmHg 59%
    01:00 +2°C° 0 mm 2 mps 474 mmHg 62%
    02:00 +1°C° 0 mm 2 mps 473 mmHg 64%
    03:00 +2°C° 0 mm 1 mps 473 mmHg 66%
    04:00 +1°C° 0 mm 1 mps 472 mmHg 69%
    05:00 +1°C° 0 mm 1 mps 472 mmHg 71%
    06:00 +1°C° 0 mm 1 mps 473 mmHg 67%
    07:00 +2°C° 0 mm 1 mps 473 mmHg 64%
    08:00 +3°C° 0 mm 1 mps 474 mmHg 60%
    09:00 +3°C° 0 mm 3 mps 475 mmHg 49%
    10:00 +4°C° 0 mm 4 mps 476 mmHg 38%
    11:00 +6°C° 0 mm 5 mps 477 mmHg 27%
    12:00 +8°C° 0 mm 6 mps 477 mmHg 23%
    13:00 +9°C° 0 mm 7 mps 478 mmHg 20%
    14:00 +10°C° 0 mm 7 mps 478 mmHg 16%
    15:00 +10°C° 0 mm 7 mps 477 mmHg 16%
    16:00 +10°C° 0 mm 7 mps 477 mmHg 16%
    17:00 +10°C° 0 mm 7 mps 476 mmHg 16%
    18:00 +8°C° 0 mm 6 mps 475 mmHg 19%
    19:00 +6°C° 0 mm 5 mps 474 mmHg 22%
    20:00 +3°C° 0 mm 5 mps 474 mmHg 25%
    21:00 +3°C° 0 mm 4 mps 473 mmHg 26%
    22:00 +2°C° 0 mm 3 mps 473 mmHg 28%
    23:00 +2°C° 0 mm 2 mps 472 mmHg 29%

    Tomorrow, 3 June, Wednesday

    Time Temperature Precipitation Wind Pressure Humidity
    00:00 +1°C° 0 mm 2 mps 472 mmHg 31%
    01:00 -1°C° 0 mm 2 mps 471 mmHg 32%
    02:00 +1°C° 0 mm 1 mps 471 mmHg 34%
    03:00 0°C° 0 mm 1 mps 471 mmHg 36%
    04:00 0°C° 0 mm 1 mps 470 mmHg 38%
    05:00 -1°C° 0 mm 1 mps 470 mmHg 40%
    06:00 0°C° 0 mm 1 mps 471 mmHg 38%
    07:00 +1°C° 0 mm 1 mps 472 mmHg 37%
    08:00 +2°C° 0 mm 1 mps 473 mmHg 35%
    09:00 +2°C° 0 mm 3 mps 474 mmHg 31%
    10:00 +4°C° 0 mm 4 mps 475 mmHg 28%
    11:00 +7°C° 0 mm 5 mps 476 mmHg 24%
    12:00 +8°C° 0 mm 7 mps 476 mmHg 21%
    13:00 +10°C° 0 mm 9 mps 477 mmHg 19%
    14:00 +11°C° 0 mm 10 mps 477 mmHg 17%
    15:00 +11°C° 0 mm 9 mps 477 mmHg 16%
    16:00 +11°C° 0 mm 8 mps 476 mmHg 15%
    17:00 +10°C° 0 mm 7 mps 476 mmHg 14%
    18:00 +8°C° 0 mm 6 mps 475 mmHg 18%
    19:00 +6°C° 0 mm 5 mps 474 mmHg 21%
    20:00 +4°C° 0 mm 3 mps 473 mmHg 24%
    21:00 +3°C° 0 mm 3 mps 473 mmHg 26%
    22:00 +2°C° 0 mm 3 mps 473 mmHg 27%
    23:00 +3°C° 0 mm 2 mps 473 mmHg 29%

    Day after tomorrow, 4 June, Thursday

    Time Temperature Precipitation Wind Pressure Humidity
    00:00 +2°C° 0 mm 2 mps 473 mmHg 31%
    01:00 +2°C° 0 mm 2 mps 473 mmHg 33%
    02:00 +3°C° 0 mm 1 mps 473 mmHg 36%
    03:00 +3°C° 0 mm 1 mps 472 mmHg 42%
    04:00 +2°C° 0 mm 1 mps 472 mmHg 49%
    05:00 +2°C° 0 mm 1 mps 472 mmHg 56%
    06:00 +1°C° 0.1 mm 2 mps 472 mmHg 58%
    07:00 +2°C° 0.1 mm 2 mps 473 mmHg 61%
    08:00 +2°C° 0.1 mm 2 mps 473 mmHg 64%
    09:00 +2°C° 0 mm 3 mps 474 mmHg 62%
    10:00 +4°C° 0 mm 4 mps 475 mmHg 60%
    11:00 +6°C° 0 mm 5 mps 476 mmHg 57%
    12:00 +7°C° 0 mm 6 mps 476 mmHg 49%
    13:00 +9°C° 0 mm 7 mps 477 mmHg 40%
    14:00 +10°C° 0 mm 8 mps 477 mmHg 32%
    15:00 +10°C° 0 mm 8 mps 477 mmHg 29%
    16:00 +10°C° 0 mm 8 mps 477 mmHg 26%
    17:00 +9°C° 0 mm 8 mps 477 mmHg 23%
    18:00 +7°C° 0 mm 6 mps 476 mmHg 23%
    19:00 +5°C° 0 mm 4 mps 475 mmHg 24%
    20:00 +3°C° 0 mm 3 mps 474 mmHg 25%
    21:00 +4°C° 0 mm 2 mps 474 mmHg 25%
    22:00 +3°C° 0 mm 2 mps 474 mmHg 24%
    23:00 +4°C° 0 mm 1 mps 474 mmHg 24%

    5 June, Friday

    Time Temperature Precipitation Wind Pressure Humidity
    00:00 +3°C° 0 mm 1 mps 473 mmHg 25%
    01:00 +2°C° 0 mm 1 mps 473 mmHg 27%
    02:00 +1°C° 0 mm 1 mps 472 mmHg 29%
    03:00 +1°C° 0 mm 1 mps 472 mmHg 33%
    04:00 +1°C° 0 mm 1 mps 472 mmHg 36%
    05:00 -2°C° 0 mm 2 mps 471 mmHg 39%
    06:00 +1°C° 0 mm 1 mps 472 mmHg 39%
    07:00 +2°C° 0 mm 1 mps 473 mmHg 39%
    08:00 +3°C° 0 mm 1 mps 474 mmHg 39%
    09:00 +5°C° 0 mm 2 mps 476 mmHg 34%
    10:00 +6°C° 0 mm 4 mps 477 mmHg 29%
    11:00 +9°C° 0 mm 5 mps 479 mmHg 24%
    12:00 +10°C° 0 mm 6 mps 479 mmHg 22%
    13:00 +11°C° 0 mm 7 mps 479 mmHg 21%
    14:00 +12°C° 0 mm 8 mps 479 mmHg 19%
    15:00 +12°C° 0 mm 7 mps 479 mmHg 18%
    16:00 +12°C° 0 mm 7 mps 479 mmHg 18%
    17:00 +11°C° 0 mm 7 mps 478 mmHg 17%
    18:00 +9°C° 0 mm 5 mps 477 mmHg 24%
    19:00 +8°C° 0 mm 3 mps 476 mmHg 30%
    20:00 +6°C° 0 mm 2 mps 475 mmHg 37%
    21:00 +6°C° 0 mm 1 mps 475 mmHg 34%
    22:00 +5°C° 0 mm 1 mps 475 mmHg 32%
    23:00 +4°C° 0 mm 1 mps 474 mmHg 29%

    6 June, Saturday

    Time Temperature Precipitation Wind Pressure Humidity
    00:00 +4°C° 0 mm 1 mps 474 mmHg 33%
    01:00 +4°C° 0 mm 1 mps 474 mmHg 36%
    02:00 +4°C° 0 mm 1 mps 474 mmHg 39%
    03:00 +4°C° 0 mm 1 mps 474 mmHg 47%
    04:00 +4°C° 0 mm 1 mps 474 mmHg 55%
    05:00 +3°C° 0 mm 2 mps 474 mmHg 62%
    06:00 +3°C° 0 mm 2 mps 475 mmHg 66%
    07:00 +3°C° 0 mm 2 mps 475 mmHg 69%
    08:00 +5°C° 0 mm 1 mps 476 mmHg 73%
    09:00 +6°C° 0 mm 2 mps 477 mmHg 63%
    10:00 +7°C° 0 mm 2 mps 478 mmHg 53%
    11:00 +9°C° 0 mm 3 mps 479 mmHg 44%
    12:00 +10°C° 0 mm 3 mps 479 mmHg 38%
    13:00 +12°C° 0 mm 4 mps 479 mmHg 33%
    14:00 +13°C° 0 mm 4 mps 479 mmHg 28%
    15:00 +13°C° 0 mm 4 mps 479 mmHg 26%
    16:00 +13°C° 0 mm 5 mps 479 mmHg 24%
    17:00 +13°C° 0 mm 5 mps 478 mmHg 21%
    18:00 +11°C° 0 mm 4 mps 478 mmHg 23%
    19:00 +9°C° 0 mm 3 mps 477 mmHg 26%
    20:00 +7°C° 0 mm 2 mps 476 mmHg 28%
    21:00 +6°C° 0 mm 2 mps 476 mmHg 30%
    22:00 +6°C° 0 mm 2 mps 476 mmHg 32%
    23:00 +5°C° 0 mm 2 mps 475 mmHg 33%

    7 June, Sunday

    Time Temperature Precipitation Wind Pressure Humidity
    00:00 +4°C° 0 mm 2 mps 475 mmHg 35%
    01:00 +3°C° 0 mm 2 mps 474 mmHg 37%
    02:00 +3°C° 0 mm 1 mps 474 mmHg 38%
    03:00 +3°C° 0 mm 1 mps 474 mmHg 40%
    04:00 +2°C° 0 mm 1 mps 473 mmHg 41%
    05:00 +2°C° 0 mm 1 mps 473 mmHg 42%
    06:00 +3°C° 0 mm 1 mps 474 mmHg 42%
    07:00 +3°C° 0 mm 0 mps 475 mmHg 41%
    08:00 +4°C° 0 mm 0 mps 477 mmHg 41%
    09:00 +6°C° 0 mm 0 mps 478 mmHg 36%
    10:00 +9°C° 0 mm 1 mps 478 mmHg 31%
    11:00 +10°C° 0 mm 1 mps 479 mmHg 26%
    12:00 +12°C° 0 mm 1 mps 480 mmHg 25%
    13:00 +13°C° 0 mm 2 mps 480 mmHg 24%
    14:00 +14°C° 0 mm 2 mps 480 mmHg 23%
    15:00 +14°C° 0 mm 2 mps 480 mmHg 24%
    16:00 +14°C° 0 mm 2 mps 479 mmHg 24%
    17:00 +13°C° 0 mm 3 mps 479 mmHg 24%
    18:00 +12°C° 0 mm 2 mps 478 mmHg 28%
    19:00 +9°C° 0 mm 2 mps 477 mmHg 32%
    20:00 +8°C° 0 mm 2 mps 477 mmHg 36%
    21:00 +7°C° 0 mm 2 mps 476 mmHg 38%
    22:00 +7°C° 0 mm 1 mps 476 mmHg 39%
    23:00 +7°C° 0 mm 1 mps 476 mmHg 41%
    Show more